Powrót do katalogu

CZ-6A DEB

AktywnySSO
NORAD 56654·DEBRIS·🇨🇳 China

Wystrzelony Nov 11, 2022 z Taiyuan Satellite Launch Center

Loading…

Następne Przeloty (najbliższe 24 godziny)

TLE

ŚwieżeSource: Space-Track

Epoka: Sep 12, 2026, 09:00 UTC

1 56654U 22151AGE 26255.37543893  .00000049  00000-0  63689-4 0  9998
2 56654  98.9091 220.5766 0136049 216.1351 143.0560 13.94908147172638

Śledź CZ-6A DEB w czasie rzeczywistym z AllMySat

Download on the App Store